Other Surface Observations
Issued by NWS Charleston, SC

Home | Current Version | Previous Version | Text Only | Print | Product List | Glossary On
Versions: 1 2 3 4 5 6 7 8 9 10 11 12 13 14 15 16 17 18 19 20 21 22 23 24 25 26 27 28 29 30 31 32 33 34 35 36 37 38 39 40 41 42 43 44 45 46 47 48 49 50
730
SXUS52 KCHS 300128
OSOCHS

MARINE OBSERVATIONS
NATIONAL WEATHER SERVICE CHARLESTON SC
900 PM EDT SUN MAY 29 2016

...DOWNTOWN CHARLESTON AND HARBOR...

CITY           SKY/WX    TMP DP  RH WIND       PRES   REMARKS
WATERFRONT PRK   N/A     72  68  87 NE6       29.87S

...LAKE MOULTRIE...

CITY           SKY/WX    TMP DP  RH WIND       PRES   REMARKS
PINOPOLIS        N/A     73  70  88 SE6       29.84R

...LAKE AND SUPPLEMENTAL COASTAL OBSERVATIONS...

STATION/POSITION TIME  TEMP    WIND        PRES    WAVE   SWELL
                       AIR SEA DIR/SP/G            HT/PER HT/PER/DIR
                 (UTC) (F)     (DEG/KT/KT) (MB)    (FT/S) (FT/S/D)
FORT PULASKI     0100      75              1014.6R
SAPELO ISLAND    0100   77     300/  7     1015.0S
WINYAH BAY       0045   72     180/  5     1013.0S
LAKE MURRAY      0100   74      30/  4/  9 1014.6S
ACE BASIN NERRS  0000   70     330/  3     1012.0S


...C-MAN AND BUOY OBSERVATIONS...

STATION/POSITION TIME  TEMP    WIND        PRES    WAVE   SWELL
                       AIR SEA DIR/SP/G            HT/PER HT/PER/DIR
                 (UTC) (F)     (DEG/KT/KT) (MB)    (FT/S) (FT/S/D)
BUOY 41004       0050   73 78  190/ 14/ 16 1012.9R   6/ 6   3/ 8
BUOY 41008       0050   77 76  300/ 16/ 17 1014.7    3/ 4   2/ 90/ 8
FOLLY BEACH CMAN 0100   71      60/  7/  8 1012.5R
CAPERS NS BUOY   0108   72 76  140/ 10/ 14 1012.5F
FRIPP NS BUOY    0108   71 75  290/ 19/ 25 1012.3R
5E ST. MARYS GA  0101      79                N/A     2/ 8


STATION/POSITION TIME  TEMP    WIND        PRES    WAVE   SWELL
                       AIR SEA DIR/SP/G            HT/PER HT/PER/DIR
                 (UTC) (F)     (DEG/KT/KT) (MB)    (FT/S) (FT/S/D)
FRYING PAN BUOY  0100   78 79  170/ 14/ 17 1014.6S
BUOY 41025       0050   78 82  170/ 21/ 25 1017.1S   5/ 8   2/150/ 9
CAPE LOOKOUT NC  0100   76     150/ 10/ 11 1016.6R
BUOY 41002       0050   76 76  130/ 14/ 17 1018.2R   5/ 8   3/110/ 8
BUOY 41010       0020   78 79   70/  4/  6 1016.7F
ST AUGUSTINE FL  0100   79 81  170/ 13/ 14 1017.2R

$$




USA.gov is the U.S. government's official web portal to all federal, state and local government web resources and services.